When you browse on this site, cookies collect data to enhance your experience and personalize the content and advertising you see.
Visit our Privacy Policy to learn more. By continuing to use the site, you agree to this use of cookies and data.
  • In Hungary
  • List of Countries
  • For 7 days
  • Water Temperature
  • Satellite Maps
  • Weather Map
  • News
  • Weather Widgets
  • user-avatar
    Login

    Hourly Weather Marcinek

    Today, 19 December, Wednesday

    Time Temperature Precipitation Wind Pressure Humidity
    00:00 -1°C° 0 mm 2 mps 761 mmHg 96%
    01:00 -1°C° 0 mm 2 mps 761 mmHg 95%
    02:00 -1°C° 0 mm 3 mps 760 mmHg 94%
    03:00 -1°C° 0 mm 3 mps 760 mmHg 93%
    04:00 -2°C° 0 mm 4 mps 760 mmHg 92%
    05:00 -2°C° 0 mm 4 mps 760 mmHg 90%
    06:00 -3°C° 0 mm 4 mps 760 mmHg 89%
    07:00 -3°C° 0 mm 4 mps 759 mmHg 88%
    08:00 -4°C° 0 mm 5 mps 759 mmHg 85%
    09:00 -2°C° 0 mm 5 mps 759 mmHg 83%
    10:00 -2°C° 0 mm 5 mps 759 mmHg 81%
    11:00 -2°C° 0 mm 5 mps 758 mmHg 80%
    12:00 -2°C° 0 mm 5 mps 758 mmHg 79%
    13:00 -1°C° 0 mm 5 mps 757 mmHg 78%
    14:00 -2°C° 0 mm 5 mps 757 mmHg 80%
    15:00 -2°C° 0 mm 5 mps 757 mmHg 81%
    16:00 -2°C° 0 mm 5 mps 756 mmHg 82%
    17:00 -2°C° 0 mm 4 mps 756 mmHg 82%
    18:00 -2°C° 0 mm 4 mps 756 mmHg 83%
    19:00 -2°C° 0 mm 4 mps 756 mmHg 83%
    20:00 -2°C° 0 mm 4 mps 755 mmHg 83%
    21:00 -2°C° 0 mm 4 mps 755 mmHg 83%
    22:00 -2°C° 0 mm 4 mps 755 mmHg 83%
    23:00 -2°C° 0.1 mm 4 mps 755 mmHg 84%

    Tomorrow, 20 December, Thursday

    Time Temperature Precipitation Wind Pressure Humidity
    00:00 -1°C° 0.1 mm 3 mps 755 mmHg 85%
    01:00 -1°C° 0.1 mm 3 mps 755 mmHg 86%
    02:00 -1°C° 0.3 mm 3 mps 755 mmHg 88%
    03:00 -1°C° 0.3 mm 3 mps 755 mmHg 90%
    04:00 -1°C° 0.3 mm 3 mps 755 mmHg 91%
    05:00 -1°C° 0.3 mm 3 mps 755 mmHg 92%
    06:00 -1°C° 0.3 mm 3 mps 755 mmHg 93%
    07:00 -1°C° 0.3 mm 3 mps 754 mmHg 93%
    08:00 -1°C° 0.3 mm 3 mps 754 mmHg 93%
    09:00 -1°C° 0.3 mm 3 mps 754 mmHg 92%
    10:00 -1°C° 0.3 mm 3 mps 754 mmHg 92%
    11:00 -1°C° 0.2 mm 3 mps 754 mmHg 92%
    12:00 -1°C° 0.2 mm 3 mps 754 mmHg 93%
    13:00 0°C° 0.2 mm 3 mps 754 mmHg 93%
    14:00 0°C° 0.2 mm 3 mps 754 mmHg 94%
    15:00 -1°C° 0.2 mm 3 mps 754 mmHg 95%
    16:00 -1°C° 0.2 mm 3 mps 754 mmHg 96%
    17:00 -1°C° 0.2 mm 3 mps 754 mmHg 96%
    18:00 0°C° 0.2 mm 3 mps 754 mmHg 96%
    19:00 0°C° 0.2 mm 3 mps 754 mmHg 96%
    20:00 0°C° 0.1 mm 3 mps 754 mmHg 96%
    21:00 0°C° 0.1 mm 3 mps 754 mmHg 96%
    22:00 0°C° 0.1 mm 3 mps 754 mmHg 95%
    23:00 0°C° 0 mm 3 mps 753 mmHg 95%

    Day after tomorrow, 21 December, Friday

    Time Temperature Precipitation Wind Pressure Humidity
    00:00 0°C° 0 mm 3 mps 753 mmHg 95%
    01:00 0°C° 0 mm 3 mps 753 mmHg 95%
    02:00 0°C° 0 mm 3 mps 753 mmHg 95%
    03:00 +1°C° 0 mm 3 mps 752 mmHg 95%
    04:00 +1°C° 0 mm 3 mps 752 mmHg 96%
    05:00 0°C° 0 mm 3 mps 752 mmHg 96%
    06:00 0°C° 0 mm 3 mps 752 mmHg 95%
    07:00 0°C° 0 mm 3 mps 751 mmHg 95%
    08:00 0°C° 0 mm 3 mps 751 mmHg 96%
    09:00 +1°C° 0 mm 3 mps 751 mmHg 96%
    10:00 +1°C° 0 mm 3 mps 750 mmHg 96%
    11:00 +1°C° 0 mm 3 mps 750 mmHg 96%
    12:00 +1°C° 0 mm 3 mps 749 mmHg 96%
    13:00 +1°C° 0 mm 3 mps 748 mmHg 96%
    14:00 +1°C° 0.1 mm 3 mps 748 mmHg 96%
    15:00 +1°C° 0.1 mm 3 mps 747 mmHg 95%
    16:00 0°C° 0.1 mm 4 mps 747 mmHg 95%
    17:00 0°C° 0.2 mm 4 mps 746 mmHg 95%
    18:00 0°C° 0.2 mm 4 mps 745 mmHg 95%
    19:00 0°C° 0.2 mm 5 mps 744 mmHg 95%
    20:00 0°C° 1.7 mm 5 mps 743 mmHg 95%
    21:00 0°C° 1.7 mm 5 mps 742 mmHg 96%
    22:00 +1°C° 1.7 mm 5 mps 741 mmHg 96%
    23:00 +2°C° 0.6 mm 5 mps 741 mmHg 93%

    22 December, Saturday

    Time Temperature Precipitation Wind Pressure Humidity
    00:00 +2°C° 0.6 mm 6 mps 741 mmHg 90%
    01:00 +3°C° 0.6 mm 7 mps 740 mmHg 87%
    02:00 +3°C° 0.1 mm 7 mps 741 mmHg 86%
    03:00 +3°C° 0.1 mm 7 mps 741 mmHg 86%
    04:00 +3°C° 0.1 mm 7 mps 741 mmHg 86%
    05:00 +3°C° 0 mm 6 mps 742 mmHg 86%
    06:00 +3°C° 0 mm 6 mps 742 mmHg 86%
    07:00 +2°C° 0 mm 6 mps 742 mmHg 87%
    08:00 +3°C° 0 mm 6 mps 742 mmHg 86%
    09:00 +3°C° 0 mm 6 mps 742 mmHg 86%
    10:00 +3°C° 0 mm 6 mps 742 mmHg 86%
    11:00 +3°C° 0.1 mm 6 mps 742 mmHg 87%
    12:00 +4°C° 0.1 mm 6 mps 742 mmHg 88%
    13:00 +4°C° 0.1 mm 6 mps 742 mmHg 88%
    14:00 +4°C° 0 mm 6 mps 742 mmHg 89%
    15:00 +5°C° 0 mm 5 mps 742 mmHg 89%
    16:00 +5°C° 0 mm 5 mps 743 mmHg 89%
    17:00 +4°C° 0.1 mm 6 mps 743 mmHg 88%
    18:00 +4°C° 0.1 mm 6 mps 743 mmHg 88%
    19:00 +4°C° 0.1 mm 6 mps 744 mmHg 87%
    20:00 +4°C° 0.1 mm 7 mps 744 mmHg 86%
    21:00 +4°C° 0.1 mm 7 mps 745 mmHg 85%
    22:00 +4°C° 0.1 mm 8 mps 745 mmHg 84%
    23:00 +3°C° 0.2 mm 7 mps 745 mmHg 84%

    23 December, Sunday

    Time Temperature Precipitation Wind Pressure Humidity
    00:00 +3°C° 0.2 mm 7 mps 746 mmHg 85%
    01:00 +3°C° 0.2 mm 6 mps 746 mmHg 85%
    02:00 +3°C° 0.2 mm 6 mps 747 mmHg 87%
    03:00 +2°C° 0.2 mm 5 mps 747 mmHg 89%
    04:00 +3°C° 0.2 mm 4 mps 748 mmHg 90%
    05:00 +3°C° 0.2 mm 3 mps 748 mmHg 91%
    06:00 +4°C° 0.2 mm 2 mps 748 mmHg 92%
    07:00 +4°C° 0.2 mm 2 mps 749 mmHg 93%
    08:00 +4°C° 0.4 mm 2 mps 749 mmHg 92%
    09:00 +4°C° 0.4 mm 2 mps 749 mmHg 91%
    10:00 +4°C° 0.4 mm 2 mps 750 mmHg 90%
    11:00 +3°C° 0.3 mm 3 mps 750 mmHg 89%
    12:00 +3°C° 0.3 mm 3 mps 750 mmHg 87%
    13:00 +3°C° 0.3 mm 4 mps 751 mmHg 86%
    14:00 +3°C° 0.1 mm 4 mps 751 mmHg 87%
    15:00 +3°C° 0.1 mm 4 mps 751 mmHg 88%
    16:00 +3°C° 0.1 mm 3 mps 751 mmHg 89%
    17:00 +2°C° 0.1 mm 3 mps 751 mmHg 90%
    18:00 +3°C° 0.1 mm 2 mps 752 mmHg 91%
    19:00 +3°C° 0.1 mm 2 mps 752 mmHg 92%
    20:00 +2°C° 0.4 mm 2 mps 752 mmHg 92%
    21:00 +2°C° 0.4 mm 2 mps 752 mmHg 93%
    22:00 +2°C° 0.4 mm 2 mps 752 mmHg 93%
    23:00 +1°C° 0.1 mm 2 mps 753 mmHg 93%

    24 December, Monday

    Time Temperature Precipitation Wind Pressure Humidity
    00:00 +1°C° 0.1 mm 2 mps 753 mmHg 93%
    01:00 +1°C° 0.1 mm 2 mps 754 mmHg 92%
    02:00 -1°C° 0 mm 2 mps 754 mmHg 93%
    03:00 -1°C° 0 mm 2 mps 755 mmHg 93%
    04:00 -1°C° 0 mm 2 mps 755 mmHg 94%
    05:00 -1°C° 0 mm 2 mps 756 mmHg 94%
    06:00 -1°C° 0 mm 2 mps 756 mmHg 94%
    07:00 -1°C° 0 mm 2 mps 757 mmHg 94%
    08:00 +1°C° 0.1 mm 2 mps 757 mmHg 93%
    09:00 +2°C° 0.1 mm 2 mps 757 mmHg 92%
    10:00 +1°C° 0.1 mm 3 mps 757 mmHg 92%
    11:00 +2°C° 0.1 mm 3 mps 757 mmHg 91%
    12:00 +2°C° 0.1 mm 3 mps 757 mmHg 91%
    13:00 +3°C° 0.1 mm 4 mps 757 mmHg 90%
    14:00 +1°C° 0.1 mm 4 mps 757 mmHg 91%
    15:00 +2°C° 0.1 mm 3 mps 757 mmHg 92%
    16:00 +2°C° 0.1 mm 3 mps 757 mmHg 92%
    17:00 +2°C° 0.1 mm 3 mps 757 mmHg 92%
    18:00 +1°C° 0.1 mm 3 mps 758 mmHg 92%
    19:00 +1°C° 0.1 mm 3 mps 758 mmHg 93%
    20:00 +1°C° 0 mm 3 mps 758 mmHg 92%
    21:00 0°C° 0 mm 4 mps 758 mmHg 92%
    22:00 0°C° 0 mm 4 mps 758 mmHg 91%
    23:00 0°C° 0 mm 4 mps 758 mmHg 91%
    Show more